Cloud_Cover
100 100 100 100 44 6 5 5 10 58 96 100 100 100 100 100 92 64 100 84 81 100 73 5 5 5 86 84 89 56 45 100 100 100 100 94 95 94 100 100 100 99 76 70 100 100 73 0 0 27 77 99 79 27
100 100 100 100 100 98 95 99 35 57 5 12 9 18 63 100 100 100 100 100 100 100 100 5 5 5 5 66 75 98 100 100 100 100 96 100 100 98 99 100 100 100 100 100 99 2 0 0 3 4 24 99 20 98
100 100 100 100 100 100 100 100 100 100 100 79 14 6 5 6 68 100 100 100 100 100 100 35 6 0 5 4 5 98 100 100 100 100 100 97 100 49 97 98 36 100 100 93 46 61 0 4 62 17 93 14 50 63
73 100 100 100 100 100 100 100 100 100 100 100 100 100 60 53 12 88 74 98 100 100 100 82 2 0 0 5 5 3 100 100 93 98 100 100 100 100 81 81 86 100 100 100 9 40 36 1 62 73 65 100 100 66
100 94 96 24 5 32 100 100 100 100 100 100 100 100 100 100 100 74 100 100 100 100 88 100 8 3 0 3 11 22 42 99 100 100 100 100 100 100 98 92 100 100 96 66 17 96 5 98 69 100 100 100 100 100
89 98 100 98 63 80 19 15 40 97 100 100 100 100 100 100 100 100 98 8 8 87 100 100 45 5 2 2 64 100 100 100 100 100 100 100 100 100 100 100 95 100 44 72 23 28 5 97 42 95 100 100 100 100
88 98 100 100 100 100 100 100 100 96 70 100 100 100 100 100 100 100 6 94 100 100 100 99 96 17 3 4 16 40 93 100 100 100 100 100 100 100 100 100 93 97 77 59 51 88 46 99 44 92 100 100 100 100
99 100 98 100 100 100 100 100 100 100 100 100 100 100 100 100 100 100 37 96 44 99 70 100 78 34 6 19 73 94 100 100 100 100 100 100 100 100 100 97 32 29 83 100 93 48 79 99 100 100 100 100 100 100
100 87 96 100 100 100 100 100 100 100 100 100 58 93 84 92 100 53 100 100 95 42 70 100 94 30 32 57 100 100 100 100 84 100 100 100 100 99 66 100 100 99 87 100 100 56 16 75 100 100 100 100 100 100
100 100 46 100 100 100 100 100 100 100 100 6 78 100 100 80 95 99 100 100 100 100 100 100 80 36 33 60 70 100 100 100 100 97 100 97 98 99 84 100 100 100 90 5 48 98 13 62 32 100 100 100 100 98
100 100 100 97 88 79 100 100 100 100 6 100 100 100 100 100 100 99 46 100 73 100 100 100 100 96 15 36 60 98 100 88 100 38 100 100 100 100 94 68 7 69 99 44 78 92 98 97 100 100 100 100 100 100
100 100 97 100 100 100 100 99 100 100 95 100 100 58 6 51 33 77 90 100 80 13 100 100 100 100 36 12 100 59 96 90 90 96 100 81 100 100 100 100 100 98 90 100 100 100 100 100 100 100 100 100 100 100
94 100 100 100 100 97 99 100 100 100 99 77 50 90 89 26 94 90 100 86 25 5 100 100 100 100 94 46 94 99 99 24 69 100 97 100 97 97 100 100 100 100 100 100 100 100 100 100 100 100 100 100 100 100
100 100 100 100 100 100 100 100 100 89 97 46 97 94 93 95 81 100 100 100 52 5 94 100 100 100 69 81 65 100 57 8 80 80 60 100 100 88 100 100 100 100 100 100 100 100 100 100 100 100 100 100 100 100
100 100 100 100 100 100 100 100 100 98 100 74 92 67 67 100 100 100 100 100 65 9 100 100 100 100 92 38 10 16 91 87 5 13 74 100 100 100 100 100 100 100 100 100 100 100 100 100 100 100 100 100 100 100
100 100 100 100 100 100 100 100 99 96 100 74 53 100 100 82 100 100 100 100 100 100 100 100 100 100 100 73 79 21 32 7 5 34 26 81 99 76 100 100 100 100 100 100 99 100 99 100 100 100 100 100 100 100
100 100 100 100 100 100 100 96 100 100 13 12 100 100 100 100 100 100 100 100 100 100 100 100 100 100 82 100 93 5 5 34 10 24 77 7 73 100 100 100 100 100 100 100 98 100 100 100 100 100 100 100 100 100
100 100 100 100 98 100 100 54 94 95 62 93 100 100 100 100 100 100 100 100 100 100 100 100 100 79 100 100 93 40 38 24 16 20 100 28 92 100 100 100 100 100 100 100 100 100 100 100 100 100 100 100 100 100
100 100 100 92 100 99 85 38 26 11 5 10 95 100 100 100 100 100 100 100 100 100 100 100 100 100 100 100 38 48 85 88 71 9 98 81 96 100 100 100 100 100 100 100 100 100 100 100 100 100 100 100 100 100
100 100 100 96 100 100 100 71 85 58 34 99 100 100 100 100 100 100 100 100 100 100 100 100 100 100 100 100 99 37 99 100 100 99 71 79 57 100 100 100 100 100 100 100 100 100 100 100 100 100 100 100 100 100
94 100 100 97 98 100 100 100 84 77 93 84 86 100 100 100 100 100 100 100 100 100 100 100 100 100 100 100 100 92 100 100 100 100 86 83 47 100 100 100 100 95 100 100 100 100 100 100 100 100 100 100 100 100
44 20 99 93 100 100 100 54 44 28 7 5 34 37 37 95 100 100 89 72 99 100 100 100 100 100 99 100 100 100 96 100 100 100 100 100 98 74 90 100 100 100 100 100 100 100 100 100 100 100 100 100 100 100
60 77 100 96 100 98 44 11 44 35 87 13 5 6 24 5 24 16 5 5 6 91 97 100 100 99 86 100 100 100 96 100 100 100 100 100 100 46 100 100 100 100 100 100 100 100 100 100 100 100 100 100 100 100
86 97 94 100 88 58 20 49 50 80 20 5 5 5 5 2 7 24 5 5 14 15 100 100 100 81 96 97 100 100 100 100 100 100 100 100 100 96 100 100 100 100 100 100 100 100 100 100 100 100 100 100 100 100
100 99 100 98 22 48 5 5 5 4 4 0 0 3 4 24 88 68 5 89 13 15 100 100 100 100 17 100 100 92 56 96 100 100 100 100 100 100 100 100 100 100 100 100 100 100 100 100 100 100 100 100 100 100
97 45 83 96 100 97 80 19 38 50 50 98 62 66 77 100 92 99 100 100 86 95 100 100 100 100 73 89 100 93 99 100 100 100 100 100 100 77 86 100 100 100 100 100 100 100 100 100 100 100 100 100 100 100
97 38 99 84 99 98 99 92 100 100 100 100 100 100 100 100 100 100 100 99 100 100 100 100 100 100 100 100 100 100 100 100 100 100 100 100 100 98 59 100 100 100 100 100 100 100 100 100 100 100 100 100 100 100
99 100 100 100 100 100 78 100 100 100 100 100 100 100 100 100 100 100 100 100 100 100 100 100 100 100 100 100 100 100 100 100 100 100 100 100 100 100 99 99 100 100 100 100 100 100 100 100 100 100 100 100 100 100
100 49 97 100 100 100 100 100 100 100 100 92 97 100 100 100 100 100 100 100 100 100 100 100 100 100 100 100 100 100 100 100 100 100 100 100 100 100 100 100 97 98 100 100 100 100 100 100 100 100 100 100 100 100
100 100 100 100 100 100 100 100 100 100 100 92 83 89 100 100 100 100 100 100 100 100 100 100 100 100 100 100 100 100 100 100 100 100 100 100 100 100 89 95 79 94 100 100 91 86 98 99 100 100 100 100 100 100
100 100 100 100 100 100 100 100 100 100 100 97 94 100 100 100 100 100 100 100 100 100 100 100 100 100 100 100 100 100 100 100 100 100 100 100 100 100 100 98 99 88 95 100 100 100 100 100 100 100 100 100 91 92
100 89 100 100 100 100 100 100 100 100 100 100 100 92 94 87 100 100 100 100 100 100 100 100 100 100 100 100 100 100 100 100 100 100 100 100 100 100 100 100 100 97 68 68 100 100 100 100 100 100 100 97 100 99
100 87 97 100 100 100 100 100 100 100 100 100 100 99 100 100 85 100 100 100 100 100 100 100 100 100 100 100 100 100 100 100 100 100 100 100 100 100 100 100 100 100 100 82 80 85 92 100 100 100 99 100 100 100